﻿測定場所 (Monitoring sites),日付 (Measurement date),時間 (Measurement time),線量率 最大値 (max) μGy/h,線量率 最小値 (min) μGy/h,線量率 平均値 (average) μGy/h,
八王子 (Hachioji),2013-08-18,23:01～24:00,0.0411,0.0348,0.0373,
八王子 (Hachioji),2013-08-18,22:01～23:00,0.0396,0.0350,0.0371,
八王子 (Hachioji),2013-08-18,21:01～22:00,0.0401,0.0356,0.0375,
八王子 (Hachioji),2013-08-18,20:01～21:00,0.0405,0.0353,0.0373,
八王子 (Hachioji),2013-08-18,19:01～20:00,0.0408,0.0352,0.0370,
八王子 (Hachioji),2013-08-18,18:01～19:00,0.0412,0.0351,0.0374,
八王子 (Hachioji),2013-08-18,17:01～18:00,0.0428,0.0356,0.0373,
八王子 (Hachioji),2013-08-18,16:01～17:00,0.0399,0.0361,0.0376,
八王子 (Hachioji),2013-08-18,15:01～16:00,0.0428,0.0353,0.0376,
八王子 (Hachioji),2013-08-18,14:01～15:00,0.0405,0.0354,0.0373,
八王子 (Hachioji),2013-08-18,13:01～14:00,0.0413,0.0349,0.0374,
八王子 (Hachioji),2013-08-18,12:01～13:00,0.0400,0.0352,0.0376,
八王子 (Hachioji),2013-08-18,11:01～12:00,0.0415,0.0357,0.0375,
八王子 (Hachioji),2013-08-18,10:01～11:00,0.0410,0.0354,0.0376,
八王子 (Hachioji),2013-08-18,09:01～10:00,0.0402,0.0347,0.0372,
八王子 (Hachioji),2013-08-18,08:01～09:00,0.0422,0.0352,0.0378,
八王子 (Hachioji),2013-08-18,07:01～08:00,0.0414,0.0361,0.0387,
八王子 (Hachioji),2013-08-18,06:01～07:00,0.0455,0.0362,0.0394,
八王子 (Hachioji),2013-08-18,05:01～06:00,0.0433,0.0365,0.0403,
八王子 (Hachioji),2013-08-18,04:01～05:00,0.0435,0.0367,0.0396,
八王子 (Hachioji),2013-08-18,03:01～04:00,0.0427,0.0367,0.0387,
八王子 (Hachioji),2013-08-18,02:01～03:00,0.0405,0.0347,0.0376,
八王子 (Hachioji),2013-08-18,01:01～02:00,0.0403,0.0351,0.0376,
八王子 (Hachioji),2013-08-18,00:01～01:00,0.0410,0.0356,0.0372,
八王子 (Hachioji),2013-08-17,23:01～24:00,0.0406,0.0348,0.0375,
八王子 (Hachioji),2013-08-17,22:01～23:00,0.0412,0.0354,0.0375,
八王子 (Hachioji),2013-08-17,21:01～22:00,0.0400,0.0351,0.0375,
八王子 (Hachioji),2013-08-17,20:01～21:00,0.0415,0.0353,0.0376,
八王子 (Hachioji),2013-08-17,19:01～20:00,0.0400,0.0351,0.0376,
八王子 (Hachioji),2013-08-17,18:01～19:00,0.0421,0.0356,0.0376,
八王子 (Hachioji),2013-08-17,17:01～18:00,0.0406,0.0359,0.0373,
八王子 (Hachioji),2013-08-17,16:01～17:00,0.0409,0.0352,0.0374,
八王子 (Hachioji),2013-08-17,15:01～16:00,0.0409,0.0356,0.0375,
八王子 (Hachioji),2013-08-17,14:01～15:00,0.0406,0.0355,0.0375,
八王子 (Hachioji),2013-08-17,13:01～14:00,0.0411,0.0353,0.0374,
八王子 (Hachioji),2013-08-17,12:01～13:00,0.0401,0.0356,0.0373,
八王子 (Hachioji),2013-08-17,11:01～12:00,0.0412,0.0338,0.0376,
八王子 (Hachioji),2013-08-17,10:01～11:00,0.0413,0.0355,0.0375,
八王子 (Hachioji),2013-08-17,09:01～10:00,0.0413,0.0351,0.0376,
八王子 (Hachioji),2013-08-17,08:01～09:00,0.0422,0.0358,0.0383,
八王子 (Hachioji),2013-08-17,07:01～08:00,0.0430,0.0362,0.0391,
八王子 (Hachioji),2013-08-17,06:01～07:00,0.0426,0.0365,0.0396,
八王子 (Hachioji),2013-08-17,05:01～06:00,0.0440,0.0366,0.0399,
八王子 (Hachioji),2013-08-17,04:01～05:00,0.0435,0.0366,0.0398,
八王子 (Hachioji),2013-08-17,03:01～04:00,0.0463,0.0375,0.0409,
八王子 (Hachioji),2013-08-17,02:01～03:00,0.0440,0.0362,0.0392,
八王子 (Hachioji),2013-08-17,01:01～02:00,0.0417,0.0353,0.0381,
八王子 (Hachioji),2013-08-17,00:01～01:00,0.0413,0.0356,0.0374,
八王子 (Hachioji),2013-08-16,23:01～24:00,0.0407,0.0356,0.0373,
八王子 (Hachioji),2013-08-16,22:01～23:00,0.0407,0.0358,0.0376,
八王子 (Hachioji),2013-08-16,21:01～22:00,0.0406,0.0351,0.0376,
八王子 (Hachioji),2013-08-16,20:01～21:00,0.0402,0.0350,0.0375,
八王子 (Hachioji),2013-08-16,19:01～20:00,0.0409,0.0354,0.0376,
八王子 (Hachioji),2013-08-16,18:01～19:00,0.0408,0.0353,0.0375,
八王子 (Hachioji),2013-08-16,17:01～18:00,0.0408,0.0357,0.0376,
八王子 (Hachioji),2013-08-16,16:01～17:00,0.0397,0.0355,0.0371,
八王子 (Hachioji),2013-08-16,15:01～16:00,0.0403,0.0355,0.0375,
八王子 (Hachioji),2013-08-16,14:01～15:00,0.0422,0.0352,0.0375,
八王子 (Hachioji),2013-08-16,13:01～14:00,0.0415,0.0357,0.0376,
八王子 (Hachioji),2013-08-16,12:01～13:00,0.0404,0.0355,0.0375,
八王子 (Hachioji),2013-08-16,11:01～12:00,0.0411,0.0356,0.0376,
八王子 (Hachioji),2013-08-16,10:01～11:00,0.0417,0.0346,0.0383,
八王子 (Hachioji),2013-08-16,09:01～10:00,0.0416,0.0361,0.0389,
八王子 (Hachioji),2013-08-16,08:01～09:00,0.0434,0.0368,0.0401,
八王子 (Hachioji),2013-08-16,07:01～08:00,0.0433,0.0375,0.0408,
八王子 (Hachioji),2013-08-16,06:01～07:00,0.0452,0.0376,0.0412,
八王子 (Hachioji),2013-08-16,05:01～06:00,0.0433,0.0365,0.0397,
八王子 (Hachioji),2013-08-16,04:01～05:00,0.0424,0.0356,0.0386,
八王子 (Hachioji),2013-08-16,03:01～04:00,0.0439,0.0368,0.0400,
八王子 (Hachioji),2013-08-16,02:01～03:00,0.0432,0.0357,0.0387,
八王子 (Hachioji),2013-08-16,01:01～02:00,0.0409,0.0340,0.0376,
八王子 (Hachioji),2013-08-16,00:01～01:00,0.0414,0.0341,0.0374,
八王子 (Hachioji),2013-08-15,23:01～24:00,0.0411,0.0361,0.0375,
八王子 (Hachioji),2013-08-15,22:01～23:00,0.0399,0.0357,0.0372,
八王子 (Hachioji),2013-08-15,21:01～22:00,0.0404,0.0352,0.0374,
八王子 (Hachioji),2013-08-15,20:01～21:00,0.0404,0.0355,0.0374,
八王子 (Hachioji),2013-08-15,19:01～20:00,0.0401,0.0353,0.0373,
八王子 (Hachioji),2013-08-15,18:01～19:00,0.0400,0.0346,0.0373,
八王子 (Hachioji),2013-08-15,17:01～18:00,0.0397,0.0354,0.0372,
八王子 (Hachioji),2013-08-15,16:01～17:00,0.0417,0.0355,0.0374,
八王子 (Hachioji),2013-08-15,15:01～16:00,0.0406,0.0350,0.0373,
八王子 (Hachioji),2013-08-15,14:01～15:00,0.0409,0.0356,0.0374,
八王子 (Hachioji),2013-08-15,13:01～14:00,0.0406,0.0355,0.0376,
八王子 (Hachioji),2013-08-15,12:01～13:00,0.0403,0.0356,0.0374,
八王子 (Hachioji),2013-08-15,11:01～12:00,0.0403,0.0363,0.0380,
八王子 (Hachioji),2013-08-15,10:01～11:00,0.0411,0.0354,0.0382,
八王子 (Hachioji),2013-08-15,09:01～10:00,0.0419,0.0358,0.0384,
八王子 (Hachioji),2013-08-15,08:01～09:00,0.0421,0.0361,0.0388,
八王子 (Hachioji),2013-08-15,07:01～08:00,0.0442,0.0364,0.0390,
八王子 (Hachioji),2013-08-15,06:01～07:00,0.0429,0.0369,0.0395,
八王子 (Hachioji),2013-08-15,05:01～06:00,0.0439,0.0367,0.0403,
八王子 (Hachioji),2013-08-15,04:01～05:00,0.0431,0.0363,0.0404,
八王子 (Hachioji),2013-08-15,03:01～04:00,0.0427,0.0365,0.0401,
八王子 (Hachioji),2013-08-15,02:01～03:00,0.0412,0.0362,0.0388,
八王子 (Hachioji),2013-08-15,01:01～02:00,0.0409,0.0353,0.0376,
八王子 (Hachioji),2013-08-15,00:01～01:00,0.0405,0.0351,0.0372,
八王子 (Hachioji),2013-08-14,23:01～24:00,0.0407,0.0357,0.0376,
八王子 (Hachioji),2013-08-14,22:01～23:00,0.0400,0.0358,0.0373,
八王子 (Hachioji),2013-08-14,21:01～22:00,0.0405,0.0354,0.0374,
八王子 (Hachioji),2013-08-14,20:01～21:00,0.0395,0.0343,0.0371,
八王子 (Hachioji),2013-08-14,19:01～20:00,0.0402,0.0358,0.0372,
八王子 (Hachioji),2013-08-14,18:01～19:00,0.0417,0.0359,0.0375,
八王子 (Hachioji),2013-08-14,17:01～18:00,0.0409,0.0357,0.0374,
八王子 (Hachioji),2013-08-14,16:01～17:00,0.0413,0.0356,0.0372,
八王子 (Hachioji),2013-08-14,15:01～16:00,0.0397,0.0352,0.0371,
八王子 (Hachioji),2013-08-14,14:01～15:00,0.0404,0.0354,0.0373,
八王子 (Hachioji),2013-08-14,13:01～14:00,0.0399,0.0355,0.0373,
八王子 (Hachioji),2013-08-14,12:01～13:00,0.0411,0.0354,0.0375,
八王子 (Hachioji),2013-08-14,11:01～12:00,0.0415,0.0353,0.0374,
八王子 (Hachioji),2013-08-14,10:01～11:00,0.0399,0.0349,0.0371,
八王子 (Hachioji),2013-08-14,09:01～10:00,0.0409,0.0354,0.0374,
八王子 (Hachioji),2013-08-14,08:01～09:00,0.0403,0.0353,0.0377,
八王子 (Hachioji),2013-08-14,07:01～08:00,0.0436,0.0363,0.0391,
八王子 (Hachioji),2013-08-14,06:01～07:00,0.0423,0.0365,0.0395,
八王子 (Hachioji),2013-08-14,05:01～06:00,0.0426,0.0360,0.0393,
八王子 (Hachioji),2013-08-14,04:01～05:00,0.0437,0.0367,0.0401,
八王子 (Hachioji),2013-08-14,03:01～04:00,0.0421,0.0356,0.0383,
八王子 (Hachioji),2013-08-14,02:01～03:00,0.0399,0.0356,0.0377,
八王子 (Hachioji),2013-08-14,01:01～02:00,0.0408,0.0355,0.0377,
八王子 (Hachioji),2013-08-14,00:01～01:00,0.0415,0.0349,0.0374,
八王子 (Hachioji),2013-08-13,23:01～24:00,0.0430,0.0346,0.0372,
八王子 (Hachioji),2013-08-13,22:01～23:00,0.0401,0.0355,0.0371,
八王子 (Hachioji),2013-08-13,21:01～22:00,0.0399,0.0352,0.0371,
八王子 (Hachioji),2013-08-13,20:01～21:00,0.0390,0.0351,0.0369,
八王子 (Hachioji),2013-08-13,19:01～20:00,0.0418,0.0344,0.0369,
八王子 (Hachioji),2013-08-13,18:01～19:00,0.0399,0.0347,0.0372,
八王子 (Hachioji),2013-08-13,17:01～18:00,0.0416,0.0351,0.0373,
八王子 (Hachioji),2013-08-13,16:01～17:00,0.0410,0.0343,0.0375,
八王子 (Hachioji),2013-08-13,15:01～16:00,0.0415,0.0351,0.0373,
八王子 (Hachioji),2013-08-13,14:01～15:00,0.0397,0.0344,0.0370,
八王子 (Hachioji),2013-08-13,13:01～14:00,0.0409,0.0352,0.0372,
八王子 (Hachioji),2013-08-13,12:01～13:00,0.0407,0.0349,0.0368,
八王子 (Hachioji),2013-08-13,11:01～12:00,0.0401,0.0350,0.0368,
八王子 (Hachioji),2013-08-13,10:01～11:00,0.0398,0.0345,0.0367,
八王子 (Hachioji),2013-08-13,09:01～10:00,0.0404,0.0356,0.0371,
八王子 (Hachioji),2013-08-13,08:01～09:00,0.0415,0.0358,0.0378,
八王子 (Hachioji),2013-08-13,07:01～08:00,0.0422,0.0355,0.0382,
八王子 (Hachioji),2013-08-13,06:01～07:00,0.0410,0.0358,0.0379,
八王子 (Hachioji),2013-08-13,05:01～06:00,0.0411,0.0359,0.0380,
八王子 (Hachioji),2013-08-13,04:01～05:00,0.0427,0.0357,0.0378,
八王子 (Hachioji),2013-08-13,03:01～04:00,0.0420,0.0365,0.0391,
八王子 (Hachioji),2013-08-13,02:01～03:00,0.0510,0.0371,0.0426,
八王子 (Hachioji),2013-08-13,01:01～02:00,0.0648,0.0461,0.0547,
八王子 (Hachioji),2013-08-13,00:01～01:00,0.0663,0.0423,0.0559,
八王子 (Hachioji),2013-08-12,23:01～24:00,0.0487,0.0394,0.0435,
八王子 (Hachioji),2013-08-12,22:01～23:00,0.0444,0.0356,0.0403,
八王子 (Hachioji),2013-08-12,21:01～22:00,0.0428,0.0357,0.0386,
八王子 (Hachioji),2013-08-12,20:01～21:00,0.0424,0.0359,0.0384,
八王子 (Hachioji),2013-08-12,19:01～20:00,0.0403,0.0359,0.0380,
八王子 (Hachioji),2013-08-12,18:01～19:00,0.0420,0.0348,0.0380,
八王子 (Hachioji),2013-08-12,17:01～18:00,0.0422,0.0363,0.0390,
八王子 (Hachioji),2013-08-12,16:01～17:00,0.0411,0.0358,0.0386,
八王子 (Hachioji),2013-08-12,15:01～16:00,0.0421,0.0362,0.0386,
八王子 (Hachioji),2013-08-12,14:01～15:00,0.0414,0.0360,0.0386,
八王子 (Hachioji),2013-08-12,13:01～14:00,0.0412,0.0356,0.0384,
八王子 (Hachioji),2013-08-12,12:01～13:00,0.0420,0.0360,0.0385,
八王子 (Hachioji),2013-08-12,11:01～12:00,0.0418,0.0360,0.0384,
八王子 (Hachioji),2013-08-12,10:01～11:00,0.0421,0.0363,0.0387,
八王子 (Hachioji),2013-08-12,09:01～10:00,0.0433,0.0364,0.0395,
八王子 (Hachioji),2013-08-12,08:01～09:00,0.0423,0.0370,0.0398,
八王子 (Hachioji),2013-08-12,07:01～08:00,0.0452,0.0373,0.0414,
八王子 (Hachioji),2013-08-12,06:01～07:00,0.0448,0.0388,0.0417,
八王子 (Hachioji),2013-08-12,05:01～06:00,0.0453,0.0389,0.0420,
八王子 (Hachioji),2013-08-12,04:01～05:00,0.0453,0.0387,0.0418,
八王子 (Hachioji),2013-08-12,03:01～04:00,0.0448,0.0385,0.0415,
八王子 (Hachioji),2013-08-12,02:01～03:00,0.0439,0.0375,0.0408,
八王子 (Hachioji),2013-08-12,01:01～02:00,0.0443,0.0379,0.0409,
八王子 (Hachioji),2013-08-12,00:01～01:00,0.0421,0.0374,0.0400,
